Regional Weather Roundup
Issued by NWS Albany, NY

Home | Current Version | Previous Version | Text Only | Print | Product List | Glossary On
Versions: 1 2 3 4 5 6 7 8 9 10 11 12 13 14 15 16 17 18 19 20 21 22 23 24 25 26 27 28 29 30 31 32 33 34 35 36 37 38 39 40 41 42 43 44 45 46 47 48 49 50
000
ASUS41 KALY 010110
RWRALY

NEW YORK STATE HOURLY WEATHER ROUNDUP
NATIONAL WEATHER SERVICE ALBANY NY
800 PM EST SAT JAN 31 2015

NOTE: "FAIR" INDICATES FEW OR NO CLOUDS BELOW 12,000 FEET WITH NO
SIGNIFICANT WEATHER AND/OR NO OBSTRUCTIONS TO VISIBILITY.

NYZ032-033-038>043-046>054-057>066-NYZ062>081-010200-
EAST


CITY           SKY/WX    TMP DP  RH WIND       PRES   REMARKS
ALBANY         FAIR      12  -2  53 NW5       30.20R WCI   4
GLENS FALLS    FAIR      -4 -11  72 CALM      30.17S
POUGHKEEPSIE   FAIR      16  -1  47 VRB3      30.19R
NEWBURGH       CLEAR     16   5  62 NW16G25   30.16R WCI   0
MONTGOMERY     FAIR      17   2  51 NW8G20    30.16R WCI   7
WHITE PLAINS   FAIR      19   3  49 NW10      30.13R WCI   7
ISLIP          FAIR      21   1  41 NW16G22   30.14R WCI   7
NEW YORK CITY  FAIR      22   7  52 NW21G26   30.19R WCI   6
CENTRAL PARK   FAIR      22   3  44 NW10G18   30.21R WCI  11
$$

NYZ005>009-017-018-044>046-055-056-010200-
CENTRAL


CITY           SKY/WX    TMP DP  RH WIND       PRES   REMARKS
FULTON         CLOUDY    14   5  67 CALM      30.20F
SYRACUSE       MOCLDY    12   6  77 SE3       30.20F
ROME           CLOUDY    11   3  70 CALM      30.23F
ELMIRA         FAIR       7   2  80 CALM      30.19R
BINGHAMTON     FAIR      10   3  73 N5        30.11F WCI   2
MONTICELLO     FAIR      10   3  72 NW10      30.10F WCI  -3
$$

NYZ026>034-041>043-010200-
NORTH


CITY           SKY/WX    TMP DP  RH WIND       PRES   REMARKS
WATERTOWN      CLOUDY    13   5  70 S3        30.21F
FORT DRUM      NOT AVBL
MASSENA        CLOUDY     4  -9  55 SW7       30.22S WCI  -8
SARANAC LAKE   FAIR      -7 -12  79 S5        30.05S WCI -18
PLATTSBURGH    FAIR       7 -10  46 VRB3      30.18R
$$

NYZ001>004-010>016-019>021-010200-
WEST


CITY           SKY/WX    TMP DP  RH WIND       PRES   REMARKS
NIAGARA FALLS  CLOUDY    24  18  77 SW16      30.17F WCI  11
BUFFALO        CLOUDY    25  17  72 SW14      30.17F WCI  13
DUNKIRK        CLOUDY    24  17  74 SW7       30.20S WCI  16
JAMESTOWN      CLOUDY    19  12  73 SW14      30.13F WCI   6
WELLSVILLE     CLOUDY    18   9  68 W9        30.11F WCI   7
ROCHESTER      CLOUDY    20  12  71 SW7       30.18F WCI  11
PENN YAN       CLOUDY     9   3  77 SW5       30.17S WCI   1
$$

             KEY
       WCI = WIND CHILL INDEX
       VSB = VISIBILITY
       HX  = HEAT INDEX
$$


USA.gov is the U.S. government's official web portal to all federal, state and local government web resources and services.